Location: Hard
(49.9417°N, 12.0858°E)
Time: 08:16:34
(UTC+00:00)

NOSS 2-1 (D) - Pass Details

Date: 07 June 2020
Orbit: 447 x 1756 km, 63.3° (Epoch: 10 July)

Event Time Altitude Azimuth Distance (km) Brightness Sun altitude
Exits shadow 01:16:54 20° 205° (SSW) 1,083 4.2 -12.1°
Maximum altitude 01:19:02 62° 129° (SE) 518 3.1 -11.9°
Drops below altitude 10° 01:22:40 10° 48° (NE) 1,713 7.2 -11.6°
Sets 01:25:00 0° 45° (NE) 2,718 8.6 -11.4°
